Dewpoint
68 67 67 65 65 64 64 65 65 64 65 63 62 61 59 59 57 55 55 57 58 59 59 59 61 63 64 65 65 66 66 66 67 65 66 65 61 62 66 67 67 67 67 66 66 66 67 67 68 70 71 72 72 72 71 71 71 71 70 70 70 70 69 69 69 68 68 68 67 66 67 65 66 65
70 68 67 66 65 65 65 64 64 64 64 63 62 62 61 61 58 57 56 56 58 58 59 59 59 62 63 64 65 65 65 68 67 65 64 65 63 63 64 65 66 66 66 65 65 65 66 67 67 69 70 71 71 71 71 71 71 70 70 70 70 69 69 69 69 69 68 67 66 66 65 66 66 65
70 69 67 67 66 66 65 65 65 64 63 63 63 62 62 62 60 59 57 55 58 59 58 59 60 60 62 63 63 65 65 67 67 66 65 65 67 66 64 65 65 65 65 65 65 65 66 66 66 67 68 69 70 70 70 70 70 70 70 70 69 69 69 69 68 68 67 66 65 65 65 64 65 65
71 70 68 67 66 66 66 66 66 66 65 63 62 62 63 62 61 60 59 57 57 60 59 59 60 60 61 63 63 63 65 66 70 67 66 66 69 68 65 65 65 65 65 65 65 65 65 64 65 67 67 68 69 69 70 70 70 70 69 69 69 69 69 68 68 67 65 65 65 65 64 64 64 64
71 70 69 68 67 66 66 66 66 66 66 65 64 63 63 62 62 60 59 58 58 59 62 61 61 62 62 62 63 63 63 64 65 68 66 67 67 67 66 65 65 65 65 65 64 64 64 64 65 66 67 68 68 69 69 69 68 68 68 68 67 68 68 68 68 65 65 64 64 64 64 63 64 64
72 71 70 69 69 67 66 66 65 66 66 66 65 64 63 62 62 62 60 59 59 57 59 62 63 63 63 61 64 63 63 63 65 65 66 67 67 66 66 65 65 65 65 65 64 64 64 64 64 65 66 67 67 67 68 67 66 67 67 67 67 67 67 67 67 65 65 64 63 63 64 63 63 63
72 71 71 70 70 69 67 66 66 65 65 66 66 65 65 63 63 63 62 60 59 59 59 61 62 62 63 62 62 63 63 64 64 64 64 66 66 66 66 65 65 66 66 65 65 64 64 64 64 65 65 66 66 66 66 66 65 65 65 65 66 66 66 65 64 64 64 64 63 64 63 63 63 62
72 72 71 71 70 69 68 67 67 66 65 65 66 65 65 65 64 63 63 62 60 60 59 60 62 62 62 63 63 63 64 64 63 64 64 65 65 65 66 66 65 66 66 66 65 65 65 64 64 64 64 64 64 64 64 64 64 63 64 64 65 64 64 63 62 62 62 63 63 63 62 63 62 61
72 72 72 71 71 70 69 68 68 67 66 66 65 65 65 65 65 64 64 64 63 61 60 60 62 63 63 63 63 63 62 63 64 64 64 64 64 65 65 66 66 66 66 65 65 65 65 65 64 64 64 63 62 62 63 63 62 63 63 62 62 63 63 62 60 60 61 61 61 61 62 61 61 62
73 72 72 72 71 70 69 69 69 68 67 66 66 65 65 65 64 64 64 64 64 63 61 61 61 61 63 62 62 63 63 62 62 63 64 64 64 63 63 65 65 66 65 65 65 66 65 65 64 64 63 62 62 61 62 62 62 61 61 60 61 62 61 60 59 59 58 58 59 59 61 61 61 61
73 73 72 72 71 71 70 70 69 68 68 67 67 66 66 65 64 64 64 64 64 63 63 62 62 61 62 63 62 62 64 63 62 61 61 62 63 64 63 63 64 65 65 65 65 65 65 65 65 62 61 61 61 61 61 61 61 60 60 59 59 59 59 59 58 57 57 58 58 58 58 57 59 60
73 73 73 72 72 71 71 70 70 69 68 68 67 67 66 66 65 64 64 63 64 63 63 62 62 62 62 61 63 63 62 62 63 63 62 60 60 62 63 63 62 63 65 65 64 65 65 64 64 63 62 62 62 61 61 62 62 61 59 59 60 60 58 58 57 56 56 56 57 57 57 57 57 58
73 73 73 73 72 72 71 68 68 68 67 69 68 67 67 66 65 64 64 64 63 63 63 63 63 62 62 62 62 62 62 61 60 61 63 62 61 61 62 63 64 63 63 64 64 64 64 64 64 64 63 63 63 62 63 63 64 62 60 59 60 60 59 58 57 56 56 55 56 56 57 57 56 56
73 73 73 73 71 68 67 67 66 65 65 65 68 68 67 67 66 65 64 64 63 63 63 63 63 62 62 62 62 62 62 62 62 61 62 62 62 60 62 63 64 65 64 63 63 64 65 64 64 64 64 64 66 63 62 61 61 62 60 60 60 60 59 58 57 56 55 55 55 55 54 55 55 55
72 72 73 73 72 70 68 68 65 65 64 64 64 64 66 66 67 66 65 64 64 63 63 63 63 62 62 62 62 62 62 63 62 62 62 62 62 61 61 60 62 66 65 64 63 63 64 65 64 64 64 64 64 64 63 62 62 60 60 60 60 60 60 59 58 56 55 55 55 54 53 53 53 54
72 72 72 72 73 73 72 72 71 67 64 63 63 63 63 64 64 64 66 65 64 64 63 63 63 63 62 63 63 62 62 62 63 63 62 62 61 61 61 61 60 62 66 64 63 63 64 65 64 63 64 64 64 64 63 62 60 60 60 60 60 59 59 60 59 58 56 56 56 55 54 53 53 53
72 72 72 72 72 73 70 71 72 72 71 64 62 62 63 63 62 62 62 63 66 65 64 63 63 63 63 63 63 63 63 63 62 62 62 62 62 61 61 61 61 61 66 64 63 62 63 65 65 64 64 64 64 64 63 62 61 60 60 60 60 59 59 59 59 58 57 56 55 53 52 53 53 53
72 72 72 72 72 72 72 72 72 72 71 71 70 67 66 66 66 62 61 61 61 65 66 65 64 64 64 64 64 64 64 63 62 62 62 62 62 62 61 62 62 62 66 64 62 62 62 64 64 64 64 65 64 64 63 62 61 60 59 59 59 59 59 59 58 58 57 56 54 51 50 50 51 52
72 72 73 72 72 72 72 72 71 72 71 71 71 71 70 68 68 68 67 66 65 65 65 65 66 66 65 65 65 65 65 64 63 63 63 63 62 63 63 63 62 63 66 65 63 61 61 63 64 63 64 64 64 64 62 61 61 60 59 59 59 58 58 59 58 57 56 55 53 51 50 50 50 50
72 72 72 72 72 72 72 69 65 67 71 71 71 70 70 70 69 69 65 65 65 66 66 66 66 66 66 64 65 65 65 64 64 65 65 64 63 62 62 61 62 62 66 66 64 62 61 63 63 63 64 64 64 63 62 61 61 60 59 59 59 58 57 58 58 57 56 55 52 50 50 49 49 49
72 72 72 72 72 72 72 68 64 63 64 71 71 71 70 70 70 70 70 64 62 62 61 61 62 62 62 62 60 60 60 63 64 64 63 62 63 62 61 61 62 62 63 66 65 63 62 63 63 63 63 63 63 63 62 61 60 60 59 58 58 57 56 57 57 57 56 54 52 50 50 49 49 50
72 72 70 72 72 72 72 66 63 62 64 69 70 70 70 70 70 70 70 70 67 61 61 61 61 61 61 61 61 61 60 59 60 64 62 63 63 63 62 63 62 62 62 64 66 64 62 62 63 62 60 59 61 62 62 61 60 59 58 57 57 56 56 56 56 56 55 53 51 50 50 49 49 50
72 72 71 69 68 70 70 64 62 61 63 69 70 70 70 70 70 70 70 70 70 69 67 66 65 65 65 65 64 65 61 61 65 63 63 64 66 65 64 64 64 62 62 63 66 63 63 63 62 62 57 59 60 60 61 61 60 59 59 59 58 56 56 55 54 54 54 52 50 50 49 49 49 50
71 72 72 70 63 61 62 62 60 59 59 68 70 70 70 70 70 71 71 70 70 70 69 69 68 67 67 67 67 66 66 66 65 64 66 67 68 66 65 64 64 62 62 63 67 63 63 63 63 63 62 60 58 56 58 60 60 59 59 59 58 58 57 56 55 54 52 50 49 49 49 48 49 49
71 71 72 72 66 61 59 59 58 58 57 59 69 71 70 70 70 70 72 71 70 70 70 70 69 69 68 68 67 67 67 66 66 65 64 68 68 67 66 65 64 63 62 63 65 64 63 63 63 62 62 61 60 52 53 58 58 58 59 58 58 58 58 57 56 54 52 50 48 48 48 49 49 49
71 71 71 72 68 62 60 58 57 56 57 57 64 68 63 63 63 68 71 70 70 70 70 69 69 69 69 69 68 68 67 67 67 66 66 66 68 68 68 67 65 63 62 63 62 64 64 63 63 62 61 61 60 58 52 52 56 57 57 57 57 56 57 57 56 53 51 49 49 48 48 49 50 50
71 72 72 71 66 61 58 56 55 55 56 55 60 58 58 59 60 61 68 68 67 68 68 68 68 68 68 68 68 68 68 68 67 67 68 68 67 68 68 68 67 65 64 65 66 65 65 63 64 63 62 61 61 58 56 54 50 54 55 56 56 55 56 55 54 53 50 49 49 49 48 48 49 50
72 72 72 71 65 59 55 53 53 54 54 60 56 54 55 56 57 62 65 67 67 67 66 66 66 66 67 68 68 68 68 68 68 68 68 69 68 68 68 68 69 67 66 66 65 65 65 64 64 64 63 62 61 60 57 56 53 52 54 55 55 54 53 54 53 53 52 49 48 48 48 47 49 49
72 66 55 54 55 56 55 54 54 54 54 52 52 53 54 58 62 64 65 66 67 66 65 64 64 65 66 66 67 68 68 69 69 69 69 69 69 69 68 68 68 67 67 66 66 65 65 65 65 65 64 64 62 61 61 57 56 53 54 53 52 53 53 52 51 51 51 49 47 48 48 47 48 52
56 54 53 54 57 60 62 65 66 66 66 61 58 56 57 62 63 64 65 66 66 65 65 64 65 66 67 67 67 67 67 67 67 68 68 68 68 68 68 67 67 67 67 67 67 66 65 65 65 65 65 64 63 62 61 61 55 55 56 54 53 53 54 51 50 50 52 50 49 48 49 49 49 53
63 64 64 64 61 60 60 60 60 61 63 65 65 65 64 64 64 65 65 66 66 66 66 65 65 66 67 67 67 66 66 66 67 67 67 67 67 67 67 67 66 67 67 67 67 66 66 65 65 65 65 64 63 62 62 62 59 55 54 56 52 49 52 51 50 49 50 50 50 50 50 50 51 56
66 66 64 63 66 66 66 66 65 65 65 64 64 64 64 64 65 65 65 65 66 66 67 66 66 66 66 66 67 67 67 66 67 67 66 66 66 66 66 66 65 66 66 67 67 67 68 66 66 66 65 65 63 62 63 62 60 57 55 56 54 54 53 52 51 50 49 50 49 48 49 49 49 53
64 63 64 64 65 65 65 64 65 64 64 64 64 64 64 63 64 64 64 63 63 64 65 65 66 66 66 66 66 66 66 66 66 67 66 66 66 67 67 66 65 65 65 65 66 67 67 67 66 66 66 65 65 64 62 60 59 58 56 55 55 54 53 54 53 49 49 48 47 47 47 49 49 51
64 63 64 64 64 63 63 62 62 62 62 61 61 61 60 60 60 60 60 60 61 62 62 63 64 64 64 65 65 65 65 66 66 66 64 66 66 66 65 65 65 66 65 65 65 65 66 66 66 66 66 66 65 64 64 61 59 57 56 55 54 53 53 52 53 50 49 47 45 44 45 47 50 52
63 63 62 61 61 61 61 61 61 60 60 60 60 60 60 60 60 59 60 60 59 60 60 60 61 61 62 62 62 63 63 64 64 65 65 66 66 66 65 65 65 65 65 65 65 65 66 65 65 64 63 62 60 59 60 62 61 58 56 55 54 53 52 52 52 50 48 46 45 44 44 46 48 51
61 61 61 60 60 59 59 58 58 58 58 59 59 59 60 60 60 60 60 60 60 60 60 60 59 60 60 60 60 61 61 61 62 63 63 64 65 65 66 65 65 65 65 65 65 65 65 65 64 62 61 59 58 58 58 59 60 58 55 53 54 53 52 51 50 49 48 46 48 45 43 43 46 50
61 60 60 59 58 57 57 57 57 58 58 58 59 60 61 61 61 61 60 59 60 59 59 59 59 59 59 59 59 59 59 60 60 61 61 62 63 63 63 63 63 64 65 65 66 66 65 64 63 62 61 59 57 57 58 58 56 56 56 54 53 53 52 51 49 48 47 46 45 44 43 45 46 48
58 57 57 56 55 56 56 57 57 58 59 59 61 61 61 61 61 60 60 60 59 59 58 58 58 58 58 58 59 59 60 60 61 61 61 61 62 62 62 63 64 64 64 64 64 65 65 64 62 62 61 59 58 58 58 54 54 54 54 55 54 53 54 51 47 47 47 46 45 46 46 45 46 47
56 56 56 56 56 56 56 57 59 60 61 61 61 61 61 60 60 60 59 59 59 58 58 58 58 58 58 59 59 59 59 59 60 60 61 61 62 63 63 63 63 64 64 63 64 64 64 63 62 61 60 60 59 58 58 56 53 56 54 52 54 53 53 52 51 49 49 48 48 49 48 49 50 52
56 55 55 56 56 56 57 59 60 61 61 61 61 61 60 60 59 59 59 58 58 58 58 58 58 57 59 59 59 59 59 59 60 60 61 61 61 62 62 63 63 63 63 63 63 63 64 63 62 62 61 61 61 61 60 57 55 55 54 52 50 53 53 53 51 50 50 49 49 48 47 47 46 47
55 55 57 55 56 58 60 61 61 61 61 61 61 59 60 59 59 59 58 58 58 58 58 58 58 58 58 58 58 58 57 58 59 60 61 61 60 60 60 59 61 62 62 61 62 62 63 64 64 60 63 60 57 56 55 53 51 51 52 53 49 50 50 51 53 51 48 49 48 47 47 46 45 46
56 56 55 55 58 59 60 61 62 61 61 60 60 59 59 59 59 56 57 57 57 57 57 57 57 57 57 57 57 57 57 57 57 57 58 59 60 60 60 60 61 62 62 61 61 62 64 65 64 63 59 56 56 55 53 53 51 51 52 52 53 49 49 49 50 50 52 50 48 47 46 45 45 44
56 56 57 58 59 60 61 61 61 60 60 59 59 59 59 58 58 57 56 56 56 56 56 56 56 56 56 57 57 57 57 57 57 56 57 57 58 60 61 62 62 62 62 62 63 61 59 59 59 58 57 56 56 56 54 53 52 51 51 51 51 52 53 50 49 49 50 50 49 48 47 45 43 42
58 59 60 59 59 60 60 60 59 59 59 59 59 59 58 57 57 56 55 55 56 56 56 56 56 56 56 56 56 56 56 56 56 56 56 56 56 57 58 60 60 61 61 60 57 56 57 56 56 56 55 53 53 52 52 51 51 52 51 51 51 51 51 52 53 50 50 50 50 49 48 47 47 47
60 60 60 61 60 60 59 59 59 59 59 59 58 58 58 57 57 56 55 55 55 55 55 55 55 55 55 55 55 54 55 53 54 56 55 55 55 55 55 55 55 55 56 56 55 54 55 54 54 54 53 53 53 52 52 52 52 52 51 51 51 52 52 52 52 51 51 50 50 50 49 50 50 49